KC1KAD Weather Reports


time (UTC)temp
C
wind
direction
speed
KPH
gust
KPH
rain 1hr
cm
rain 24hr
cm
rain mn
cm
humidity
%
barometer
mb
20260906095306 20 0 0.0 3.2 0.00 0.00 0.00 100 1016.6
20260906094801 20 23 1.6 3.2 0.00 0.00 0.00 100 1016.6
20260906094301 20 40 1.6 4.8 0.00 0.00 0.00 100 1016.6
20260906093801 20 0 1.6 4.8 0.00 0.00 0.00 100 1016.6
20260906093302 20 52 0.0 4.8 0.00 0.00 0.00 100 1016.5
20260906092801 20 34 0.0 3.2 0.00 0.00 0.00 100 1016.5
20260906092301 20 257 0.0 3.2 0.00 0.00 0.00 100 1016.6
20260906091801 20 52 0.0 3.2 0.00 0.00 0.00 100 1016.6
20260906090801 20 156 0.0 3.2 0.00 0.00 0.00 100 1016.5
20260906090301 20 91 0.0 3.2 0.00 0.00 0.00 100 1016.5
20260906085801 20 168 0.0 1.6 0.00 0.00 0.00 100 1016.5
20260906085306 20 0 0.0 0.0 0.00 0.00 0.00 100 1016.5
20260906084801 20 0 0.0 1.6 0.00 0.00 0.00 100 1016.5
20260906084303 20 191 0.0 1.6 0.00 0.00 0.00 100 1016.6
20260906084021 20 0 0.0 1.6 0.00 0.00 0.00 99 1016.7
20260906083525 20 233 0.0 1.6 0.00 0.00 0.00 99 1016.6
20260906082800 20 15 0.0 1.6 0.00 0.00 0.00 99 1016.5
20260906082300 20 0 0.0 1.6 0.00 0.00 0.00 99 1016.6
20260906081800 20 0 0.0 3.2 0.00 0.00 0.00 99 1016.6
20260906081300 20 0 0.0 3.2 0.00 0.00 0.00 99 1016.6
20260906080800 20 0 1.6 4.8 0.00 0.00 0.00 99 1016.4
20260906080520 20 237 1.6 4.8 0.00 0.00 0.00 99 1016.4
20260906075800 20 199 1.6 4.8 0.00 0.00 0.00 99 1016.4
20260906075300 20 43 1.6 4.8 0.00 0.00 0.00 99 1016.3
20260906074800 20 124 0.0 3.2 0.00 0.00 0.00 99 1016.3
20260906074300 20 45 0.0 3.2 0.00 0.00 0.00 99 1016.3
20260906073800 20 0 0.0 3.2 0.00 0.00 0.00 99 1016.2
20260906072759 20 0 0.0 1.6 0.00 0.00 0.00 99 1016.3
20260906072257 20 0 0.0 1.6 0.00 0.00 0.00 99 1016.4
20260906071743 20 236 0.0 1.6 0.00 0.00 0.00 99 1016.4
20260906071502 20 262 0.0 1.6 0.00 0.00 0.00 99 1016.5
20260906070745 20 226 0.0 1.6 0.00 0.00 0.00 99 1016.5
20260906065952 20 226 0.0 0.0 0.00 0.00 0.00 99 1016.6
20260906064729 20 226 0.0 1.6 0.00 0.00 0.00 99 1016.5
20260906064231 20 226 0.0 1.6 0.00 0.00 0.00 99 1016.4
20260906063946 20 226 0.0 1.6 0.00 0.00 0.00 99 1016.4
20260906063228 20 226 0.0 1.6 0.00 0.00 0.00 99 1016.4
20260906062228 20 226 0.0 1.6 0.00 0.00 0.00 99 1016.5
20260906061728 20 226 1.6 3.2 0.00 0.00 0.00 99 1016.5
20260906061228 20 226 1.6 3.2 0.00 0.00 0.00 99 1016.6
20260906060729 20 226 0.0 1.6 0.00 0.00 0.00 99 1016.6
20260906060229 20 226 0.0 1.6 0.00 0.00 0.00 99 1016.6
20260906055729 20 226 0.0 1.6 0.00 0.00 0.00 99 1016.7
20260906055446 20 226 0.0 1.6 0.00 0.00 0.00 99 1016.8
20260906054728 20 226 0.0 1.6 0.00 0.00 0.00 99 1016.9
20260906054229 20 226 0.0 0.0 0.00 0.00 0.00 99 1017.0
20260906053729 20 226 0.0 0.0 0.00 0.00 0.00 99 1017.2
20260906053229 20 226 0.0 1.6 0.00 0.00 0.00 98 1017.4
20260906052729 20 225 0.0 1.6 0.00 0.00 0.00 98 1017.5
20260906052229 20 225 0.0 1.6 0.00 0.00 0.00 98 1017.6
20260906051729 20 226 1.6 1.6 0.00 0.00 0.00 98 1017.5
20260906051229 20 226 1.6 3.2 0.00 0.00 0.00 98 1017.5
20260906050728 20 227 1.6 3.2 0.00 0.00 0.00 98 1017.4
20260906050228 20 228 1.6 3.2 0.00 0.00 0.00 98 1017.5
20260906045946 20 226 1.6 3.2 0.00 0.00 0.00 98 1017.4
20260906045229 20 226 0.0 3.2 0.00 0.00 0.00 98 1017.4
20260906044729 20 226 0.0 1.6 0.00 0.00 0.00 98 1017.4
20260906044229 20 226 0.0 1.6 0.00 0.00 0.00 98 1017.4
20260906043729 20 225 0.0 1.6 0.00 0.00 0.00 98 1017.4
20260906043229 20 225 0.0 1.6 0.00 0.00 0.00 98 1017.4
20260906042729 20 226 1.6 3.2 0.00 0.00 0.00 98 1017.2
20260906042229 20 225 3.2 3.2 0.00 0.00 0.00 98 1017.2
20260906041728 20 228 1.6 3.2 0.00 0.00 0.00 98 1017.2
20260906041228 20 228 1.6 3.2 0.00 0.00 0.00 98 1017.2
20260906040728 20 226 1.6 3.2 0.00 0.00 0.00 98 1017.2
20260906040228 20 226 1.6 3.2 0.00 0.00 0.00 98 1017.2
20260906035729 20 226 1.6 3.2 0.00 0.00 0.00 97 1017.2
20260906035229 20 226 1.6 3.2 0.00 0.00 0.00 97 1017.4
20260906034729 20 226 1.6 3.2 0.00 0.00 0.00 98 1017.5
20260906034228 20 228 1.6 4.8 0.00 0.00 0.00 98 1017.7
20260906033728 20 226 1.6 4.8 0.00 0.00 0.00 98 1017.7
20260906033228 20 226 1.6 3.2 0.00 0.00 0.00 98 1017.7
20260906032948 20 226 1.6 6.4 0.00 0.00 0.00 98 1017.6
20260906032228 20 226 1.6 6.4 0.00 0.00 0.00 98 1017.6
20260906031729 20 36 1.6 4.8 0.00 0.00 0.00 97 1017.5
20260906031228 20 226 1.6 6.4 0.00 0.00 0.00 97 1017.4
20260906030728 20 225 3.2 6.4 0.00 0.00 0.00 97 1017.5
20260906030229 20 173 1.6 11.3 0.00 0.00 0.00 97 1017.7
20260906025950 20 0 1.6 11.3 0.00 0.00 0.00 97 1017.7
20260906025228 20 40 1.6 6.4 0.00 0.00 0.00 97 1017.7
20260906024728 20 210 1.6 9.7 0.00 0.00 0.00 97 1017.6
20260906024230 20 0 1.6 9.7 0.00 0.00 0.00 97 1017.6
20260906023729 20 230 1.6 9.7 0.00 0.00 0.00 97 1017.5
20260906023228 21 196 1.6 9.7 0.00 0.00 0.00 97 1017.5
20260906022729 21 187 1.6 9.7 0.00 0.00 0.00 97 1017.5
20260906022449 21 227 1.6 9.7 0.00 0.00 0.00 97 1017.4
20260906021729 21 226 0.0 4.8 0.00 0.00 0.00 96 1017.1
20260906021229 21 231 0.0 4.8 0.00 0.00 0.00 96 1017.4
20260906020729 21 0 0.0 4.8 0.00 0.00 0.00 96 1017.2
20260906020229 21 231 1.6 6.4 0.00 0.00 0.00 96 1017.1
20260906015729 21 18 1.6 9.7 0.00 0.00 0.00 96 1017.0
20260906015229 21 50 4.8 11.3 0.00 0.00 0.00 96 1017.0
20260906014729 21 209 4.8 11.3 0.00 0.00 0.00 95 1016.9
20260906014228 21 221 3.2 8.0 0.00 0.00 0.00 95 1017.0
20260906013729 21 263 1.6 6.4 0.00 0.00 0.00 95 1017.0
20260906013448 21 38 1.6 4.8 0.00 0.00 0.00 95 1017.0
20260906012949 21 8 1.6 6.4 0.00 0.00 0.00 95 1016.9
20260906012450 21 22 1.6 6.4 0.00 0.00 0.00 95 1016.9
20260906011952 21 41 1.6 3.2 0.00 0.00 0.00 95 1017.0
20260906011229 21 50 0.0 3.2 0.00 0.00 0.00 95 1017.0
20260906010728 21 222 1.6 3.2 0.00 0.00 0.00 94 1016.8
20260906010229 21 207 1.6 4.8 0.00 0.00 0.00 94 1016.8
20260906005728 22 54 0.0 4.8 0.00 0.00 0.00 94 1016.8
20260906005228 22 0 1.6 4.8 0.00 0.00 0.00 94 1016.8
20260906004950 22 44 1.6 6.4 0.00 0.00 0.00 94 1016.6
20260906004229 22 47 1.6 6.4 0.00 0.00 0.00 94 1016.6
20260906003729 22 38 1.6 6.4 0.00 0.00 0.00 93 1016.5
20260906003229 22 0 1.6 6.4 0.00 0.00 0.00 93 1016.4
20260906002729 22 41 0.0 4.8 0.00 0.00 0.00 93 1016.5
20260906001729 22 30 0.0 4.8 0.00 0.00 0.00 92 1016.5
20260906000729 22 53 0.0 6.4 0.00 0.00 0.00 92 1016.6
20260906000229 22 41 0.0 3.2 0.00 0.00 0.00 92 1016.6
20260905235729 22 0 0.0 3.2 0.00 0.00 0.00 92 1016.6
20260905235446 22 0 0.0 6.4 0.00 0.00 0.00 92 1016.6
20260905234728 22 33 0.0 6.4 0.00 0.00 0.00 92 1016.5
20260905234228 22 0 0.0 1.6 0.00 0.00 0.00 91 1016.5
20260905233730 22 0 0.0 3.2 0.00 0.00 0.00 91 1016.5
20260905233229 22 251 0.0 3.2 0.00 0.00 0.00 91 1016.4
20260905232230 22 45 0.0 3.2 0.00 0.00 0.00 92 1016.5
20260905231729 22 0 0.0 3.2 0.00 0.00 0.00 92 1016.4
20260905231229 23 0 0.0 1.6 0.00 0.00 0.00 92 1016.4
20260905230729 23 0 0.0 3.2 0.00 0.00 0.00 91 1016.4
20260905230229 23 0 0.0 3.2 0.00 0.00 0.00 91 1016.3
20260905225729 23 0 0.0 3.2 0.00 0.00 0.00 91 1016.3
20260905225229 23 0 0.0 1.6 0.00 0.00 0.00 90 1016.2
20260905224728 23 171 0.0 1.6 0.00 0.00 0.00 91 1016.2
20260905224228 23 0 0.0 1.6 0.00 0.00 0.00 90 1016.2
20260905223728 23 197 0.0 3.2 0.00 0.00 0.00 90 1016.3
20260905223228 23 0 0.0 3.2 0.00 0.00 0.00 90 1016.2
20260905222728 23 0 0.0 3.2 0.00 0.00 0.00 90 1016.2
20260905221950 23 3 1.6 3.2 0.00 0.00 0.00 87 1016.3
20260905221229 23 27 1.6 3.2 0.00 0.00 0.00 87 1016.3
20260905220729 23 24 0.0 3.2 0.00 0.00 0.00 90 1016.4
20260905220229 23 0 0.0 3.2 0.00 0.00 0.00 89 1016.4
20260905215729 23 0 0.0 3.2 0.00 0.00 0.00 89 1016.5
20260905215229 23 0 0.0 3.2 0.00 0.00 0.00 89 1016.6
20260905214948 22 0 0.0 3.2 0.00 0.00 0.00 90 1016.6
20260905214229 22 216 1.6 3.2 0.00 0.00 0.00 91 1016.6
20260905213729 22 82 1.6 3.2 0.00 0.00 0.00 91 1016.6
20260905213229 22 0 0.0 3.2 0.00 0.00 0.00 91 1016.7
20260905212228 22 278 1.6 3.2 0.00 0.00 0.00 89 1016.7
20260905211729 22 38 0.0 3.2 0.00 0.00 0.00 88 1016.6
20260905211228 22 0 0.0 3.2 0.00 0.00 0.00 88 1016.8
20260905210229 22 187 1.6 4.8 0.00 0.00 0.00 87 1016.8
20260905205950 22 144 1.6 4.8 0.00 0.00 0.00 86 1016.6
20260905205448 22 255 0.0 4.8 0.00 0.00 0.00 85 1016.7
20260905204728 23 211 1.6 3.2 0.00 0.00 0.00 85 1016.7
20260905204228 23 212 1.6 3.2 0.00 0.00 0.00 87 1016.8
20260905203728 23 0 0.0 4.8 0.00 0.00 0.00 87 1017.0
20260905203228 23 259 1.6 4.8 0.00 0.00 0.00 86 1017.0
20260905202728 23 25 3.2 6.4 0.00 0.00 0.00 84 1016.8
20260905202228 23 29 1.6 6.4 0.00 0.00 0.00 80 1016.8
20260905201952 24 355 0.0 3.2 0.00 0.00 0.00 80 1016.8
20260905201228 23 26 1.6 3.2 0.00 0.00 0.00 80 1017.2
20260905200728 23 0 1.6 4.8 0.00 0.00 0.00 79 1017.0
20260905200446 23 198 3.2 6.4 0.00 0.00 0.00 80 1016.8
20260905195230 23 189 4.8 8.0 0.00 0.00 0.00 81 1017.0
20260905194230 24 190 4.8 14.5 0.00 0.00 0.00 81 1017.4
20260905193951 25 206 6.4 14.5 0.00 0.00 0.00 78 1017.1
20260905193230 25 207 6.4 14.5 0.00 0.00 0.00 81 1017.6
20260905192730 25 186 4.8 6.4 0.00 0.00 0.00 79 1017.6
20260905192230 26 186 1.6 4.8 0.00 0.03 0.00 77 1017.5
20260905191730 27 182 0.0 3.2 0.00 0.05 0.00 73 1017.1
20260905190730 27 354 1.6 6.4 0.00 0.51 0.00 71 1017.0
20260905190229 28 84 1.6 6.4 0.00 0.61 0.00 72 1017.0
20260905185730 28 5 1.6 4.8 0.00 0.61 0.00 70 1017.1
20260905185230 28 330 1.6 4.8 0.00 0.61 0.00 70 1017.0
20260905184730 29 0 1.6 4.8 0.00 0.61 0.00 69 1016.8
20260905184230 30 13 1.6 4.8 0.00 0.61 0.00 68 1016.6
20260905183948 31 345 0.0 3.2 0.00 0.61 0.00 67 1016.7
20260905182730 31 351 0.0 4.8 0.00 0.61 0.00 65 1016.6
20260905182230 31 0 1.6 4.8 0.00 0.61 0.00 64 1016.7
20260905181730 30 0 0.0 4.8 0.00 0.61 0.00 66 1016.8
20260905181229 30 20 0.0 4.8 0.00 0.61 0.00 67 1016.7
20260905180729 30 30 1.6 3.2 0.00 0.61 0.00 67 1017.0
20260905180230 30 26 1.6 3.2 0.00 0.61 0.00 67 1017.0
20260905175730 29 0 0.0 3.2 0.00 0.61 0.00 69 1017.4
20260905175230 29 43 0.0 1.6 0.00 0.61 0.00 71 1017.6
20260905174730 29 0 1.6 1.6 0.00 0.61 0.00 71 1017.7
20260905174230 29 19 0.0 1.6 0.00 0.61 0.00 70 1017.7
20260905173730 29 0 0.0 0.0 0.00 0.61 0.00 70 1017.7
20260905173230 29 0 0.0 3.2 0.00 0.61 0.00 71 1017.7
20260905172730 29 0 0.0 3.2 0.00 0.61 0.00 71 1017.7
20260905172230 29 28 1.6 4.8 0.00 0.61 0.00 69 1017.7
20260905171730 29 5 1.6 4.8 0.00 0.61 0.00 69 1017.9
20260905171230 29 7 1.6 3.2 0.00 0.61 0.00 69 1017.8
20260905170730 28 277 1.6 3.2 0.00 0.61 0.00 70 1017.8
20260905170230 28 0 1.6 3.2 0.00 0.61 0.00 68 1017.9
20260905165730 28 3 1.6 3.2 0.00 0.61 0.00 74 1017.8
20260905165230 28 14 1.6 3.2 0.00 0.61 0.00 75 1017.9
20260905164729 28 308 1.6 3.2 0.00 0.61 0.00 78 1018.1
20260905164452 27 27 1.6 4.8 0.00 0.61 0.00 79 1018.3
20260905163448 27 321 3.2 3.2 0.00 0.61 0.00 79 1018.4
20260905162728 27 5 3.2 3.2 0.00 0.61 0.00 81 1018.3
20260905162228 27 18 1.6 3.2 0.00 0.61 0.00 81 1018.4
20260905161728 27 17 1.6 3.2 0.00 0.61 0.00 81 1018.4
20260905161229 26 24 3.2 3.2 0.00 0.61 0.00 82 1018.4
20260905160951 26 357 1.6 3.2 0.00 0.61 0.00 83 1018.4
20260905160230 26 7 1.6 3.2 0.00 0.61 0.00 84 1018.5
20260905155230 25 40 3.2 4.8 0.00 0.61 0.00 84 1018.5
20260905154730 25 11 3.2 4.8 0.00 0.61 0.00 85 1018.4
20260905154229 25 20 1.6 3.2 0.00 0.61 0.00 86 1018.6
20260905153729 25 229 1.6 3.2 0.00 0.61 0.00 88 1018.6
20260905153230 24 46 1.6 3.2 0.00 0.61 0.00 91 1018.7
20260905152729 24 226 3.2 3.2 0.00 0.61 0.00 91 1018.7
20260905152229 23 26 3.2 4.8 0.00 0.61 0.00 92 1018.9
20260905151729 23 24 3.2 4.8 0.00 0.61 0.00 94 1018.9
20260905151229 23 23 3.2 3.2 0.00 0.61 0.00 95 1018.9
20260905150729 23 20 1.6 3.2 0.00 0.61 0.00 96 1019.0
20260905150229 22 6 3.2 4.8 0.00 0.61 0.00 97 1019.1
20260905145729 22 7 3.2 4.8 0.00 0.61 0.00 98 1019.1
20260905145447 22 27 3.2 4.8 0.00 0.61 0.00 99 1019.1
20260905144955 22 32 3.2 4.8 0.00 0.61 0.00 99 1019.1
20260905143947 21 26 3.2 6.4 0.00 0.61 0.00 100 1019.1
20260905143228 21 34 3.2 6.4 0.00 0.61 0.00 100 1019.1
20260905142729 21 25 3.2 4.8 0.00 0.61 0.00 100 1019.1
20260905142229 21 30 3.2 4.8 0.00 0.61 0.00 100 1019.2
20260905141729 21 37 1.6 3.2 0.00 0.61 0.00 100 1019.2
20260905141447 21 26 1.6 3.2 0.00 0.61 0.00 100 1019.2
20260905140729 21 23 1.6 4.8 0.00 0.61 0.00 100 1019.3
20260905140229 21 48 1.6 4.8 0.00 0.61 0.00 100 1019.4
20260905135729 21 62 1.6 3.2 0.00 0.61 0.00 100 1019.4
20260905135229 21 65 1.6 4.8 0.00 0.61 0.00 100 1019.4
20260905134229 20 50 1.6 6.4 0.00 0.61 0.00 100 1019.6
20260905133729 20 140 1.6 3.2 0.00 0.61 0.00 100 1019.6
20260905133229 20 0 1.6 3.2 0.00 0.61 0.00 100 1019.6
20260905132729 20 47 0.0 3.2 0.00 0.61 0.00 100 1019.6
20260905132229 20 0 1.6 6.4 0.00 0.61 0.00 100 1019.6
20260905131728 20 52 1.6 6.4 0.00 0.61 0.00 100 1019.6
20260905130957 20 179 3.2 9.7 0.00 0.61 0.00 100 1019.6
20260905130227 20 21 1.6 9.7 0.00 0.61 0.00 100 1019.5
20260905125727 20 267 1.6 6.4 0.00 0.61 0.00 100 1019.5
20260905125228 20 0 1.6 6.4 0.00 0.61 0.00 100 1019.5
20260905124712 20 242 1.6 4.8 0.00 0.61 0.00 100 1019.4
20260905124212 20 0 1.6 6.4 0.00 0.61 0.00 100 1019.4
20260905123712 20 335 1.6 6.4 0.00 0.61 0.00 100 1019.5
20260905123201 20 193 1.6 4.8 0.00 0.61 0.00 100 1019.5
20260905122701 20 229 1.6 3.2 0.00 0.61 0.00 100 1019.4
20260905122201 20 234 1.6 3.2 0.00 0.61 0.00 100 1019.4
20260905121701 20 18 1.6 3.2 0.00 0.61 0.00 100 1019.5
20260905121201 20 70 1.6 3.2 0.00 0.61 0.00 100 1019.3
20260905120701 20 333 1.6 3.2 0.00 0.61 0.00 100 1019.3
20260905120201 20 352 1.6 3.2 0.00 0.61 0.00 100 1019.4
20260905115701 20 0 1.6 3.2 0.00 0.61 0.00 100 1019.3
20260905115201 20 335 1.6 8.0 0.00 0.61 0.00 100 1019.1
20260905114701 20 224 1.6 8.0 0.00 0.61 0.00 100 1019.1
20260905114421 20 27 1.6 4.8 0.00 0.61 0.00 100 1019.0
20260905113701 20 220 1.6 4.8 0.00 0.61 0.00 100 1019.0
20260905113201 20 337 1.6 4.8 0.00 0.61 0.00 100 1019.0
20260905112701 20 0 1.6 4.8 0.00 0.61 0.00 100 1018.9
20260905112201 20 12 1.6 6.4 0.00 0.61 0.00 100 1018.9
20260905111701 20 54 1.6 6.4 0.00 0.61 0.00 100 1018.7
20260905111201 20 261 1.6 3.2 0.00 0.61 0.00 100 1018.6
20260905110918 20 36 1.6 3.2 0.00 0.61 0.00 100 1018.6
20260905110419 20 165 1.6 3.2 0.00 0.61 0.00 100 1018.6
20260905105701 20 217 1.6 9.7 0.00 0.61 0.00 100 1018.5
20260905105200 20 0 1.6 9.7 0.00 0.61 0.00 100 1018.4
20260905104700 20 0 0.0 1.6 0.00 0.61 0.00 100 1018.4
20260905104203 20 44 1.6 4.8 0.00 0.61 0.00 100 1018.3
20260905103701 20 64 1.6 4.8 0.00 0.61 0.00 100 1018.3
20260905103201 20 65 1.6 4.8 0.00 0.61 0.00 100 1018.3
20260905102701 20 152 1.6 4.8 0.00 0.61 0.00 100 1018.3
20260905102201 20 225 0.0 3.2 0.00 0.61 0.00 100 1018.3
20260905101701 20 12 0.0 1.6 0.00 0.61 0.00 100 1018.3
20260905101201 20 150 0.0 1.6 0.00 0.61 0.00 99 1018.3
20260905100703 20 0 0.0 1.6 0.00 0.61 0.00 99 1018.2